星链-11089 [DTC] (STARLINK-11089 [DTC] )

导读 | 豆包AI

STARLINK-11089是美国于北京时间2024年4月7日8时发射的星链系列卫星,归属于太空探索技术公司(SpaceX)的星链互联网卫星星座项目。星链项目旨在构建全球卫星互联网,为全球多地提供高速低延迟宽带服务,该卫星加入星座后,进一步扩充了星链星座的组网规模,提升其覆盖与服务能力。

基本信息
目录编号:
59426
目录名称:
STARLINK-11089
国际标识:
2024-065F
轨道中心:
EARTH
卫星名称:
星链-11089 [DTC]
卫星全名:
星链-11089 [DTC] (STARLINK-11089 [DTC] )
卫星状态:
在轨 (已飞行707 天)
发射日期:
2024-04-07 UTC
国别 :
美国 (US)
星等 :
--
轨道信息
数据来源 国际轨道数据
星历时间: 2026-03-15T13:58:44+0800
15小时前
查看轨道信息
半长轴: 6737.904km
偏心率: 0.0001618
轨道倾角: 53.159°
近地点辐角 113.166°
升交点赤经 66.691°
平近点角 246.953°
近地点: 358.676km
远地点: 360.858km
周期: 91.738分钟
每日圈数: 15.696961
详细信息
固有亮度:
5
最大亮度:
0.5
卫星平台:
Starlink v2.0 mini
覆盖范围:
全球
运营商:
太空探索技术公司
运营商所在国:
美国
制造商(研发单位):
太空探索技术公司
制造商所在国:
美国
使用方式:
暂无
卫星简介
星链(Starlink)计划是由太空探索技术公司(SpaceX)提出的一个巨型低轨卫星互联网星座项目,计划在2019年至2024年间在太空搭建由约1.2万颗卫星组成的“星链”网络,其中1584颗将部署在地球上空550千米处的近地轨道,并从2020年开始工作。该卫星仍在工作。
2D轨道图
3D轨道图
轨道高度分析图
轨道倾角分析图
轨道综合分析图
查看轨道综合分析图